Regional Weather Roundup
Issued by NWS

Home | Current Version | Previous Version | Text Only | Print | Product List | Glossary Off
Versions: 1 2 3 4 5 6 7 8 9 10 11 12 13 14 15 16 17 18 19 20 21 22 23 24 25 26 27 28 29 30 31 32 33 34 35 36 37 38 39 40 41 42 43 44 45 46 47 48 49 50

000
ASUS45 KTFX 130610
RWRMT
MONTANA REGIONAL WEATHER ROUNDUP
NATIONAL WEATHER SERVICE GREAT FALLS MT
1100 PM MST FRI FEB 12 2016

NOTE: "FAIR" INDICATES FEW OR NO CLOUDS BELOW 12000 FEET WITH NO
SIGNIFICANT WEATHER AND/OR OBSTRUCTIONS TO VISIBILITY.

MTZ001>007-043-130700-
WEST OF THE DIVIDE

CITY           SKY/WX    TMP DP  RH WIND       PRES   REMARKS
KALISPELL      FOG       33  33 100 CALM      30.01F VSB 1/4
MISSOULA       CLOUDY    36  35  96 S3        30.06F
BUTTE          CLOUDY    32  27  81 SE5       30.08F
MULLAN PASS    HVY SNOW  32  32 100 VRB5      30.05R VSB 1/4
ANACONDA         N/A     36  30  80 CALM      30.05F
DEER LODGE       N/A     34  34 100 NW3       30.07F
HAMILTON         N/A     37  37 100 S3        30.05F
PLAINS           N/A     41  38  89 CALM      30.03F VSB 0
$$

MTZ008-052>055-130700-
SOUTHWEST MONTANA

CITY           SKY/WX    TMP DP  RH WIND       PRES   REMARKS
BOZEMAN        CLOUDY    32  30  92 CALM      30.06F
DILLON         CLOUDY    37  24  59 S9        30.09S WCI  30
ENNIS          PTCLDY    39  19  45 S18       30.15S WCI  30
TWIN BRIDGES     N/A     35  23  62 SE5       30.07S
$$

MTZ009-010-012-014-046-048-049-054-130700-
EAST SLOPES AND CENTRAL MONTANA

CITY           SKY/WX    TMP DP  RH WIND       PRES   REMARKS
CUT BANK       CLEAR     36  30  79 SE8       29.92F WCI  30
GREAT FALLS    CLEAR     40  31  70 SW12      29.96F
MALMSTROM AFB  CLEAR     42  32  70 SW14      29.96F
HELENA         PTCLDY    37  32  82 S5        30.02F
CHOTEAU          N/A     50  30  46 CALM      29.95F
CONRAD           N/A     25  25 100 CALM      29.97F
$$

MTZ011-013-016-021-045-047-050-051-130700-
NORTH CENTRAL MONTANA

CITY           SKY/WX    TMP DP  RH WIND       PRES   REMARKS
HAVRE          CLEAR     22  20  92 NE5       29.99F
LEWISTOWN      CLOUDY    44  33  65 SW14      29.98F
N BAR RANCH      N/A     32  27  80 W3        30.01F
CHINOOK          N/A     25  21  86 E10G16    30.02S WCI  15
$$

MTZ017>020-022>027-061-062-130700-
NORTHEAST MONTANA

CITY           SKY/WX    TMP DP  RH WIND       PRES   REMARKS
GLASGOW        CLOUDY    18  13  80 E22       30.11F WCI   1
JORDAN           N/A     26  24  92 E8        30.07F WCI  18
SIDNEY         CLOUDY    16  10  79 SE12      30.27F WCI   3
WOLF POINT     CLOUDY    19  14  81 E13       30.21F WCI   6
PLENTYWOOD       N/A     10   7  85 SE16G22   30.24F WCI  -7
POPLAR           N/A     16  10  79 E15       30.23F WCI   1
SCOBEY           N/A     13   1  58 E16       30.14F WCI  -3
$$

MTZ028>42-056>058-130700-
SOUTHCENTRAL AND SOUTHEAST MONTANA

CITY           SKY/WX    TMP DP  RH WIND       PRES   REMARKS
BAKER          CLOUDY    21  15  78 SE23G29   30.18F WCI   5
BILLINGS       MOCLDY    35  30  82 SW3       30.03F
LIVINGSTON     CLOUDY    49  18  29 SW17G28   30.02F
MILES CITY     CLOUDY    29  24  82 SE15      30.11F WCI  18
EKALAKA          N/A     22  17  81 SE21      30.08F WCI   7
FORSYTH          N/A     30  27  86 E7        30.07F WCI  23
LAUREL           N/A     32  24  72 CALM      30.01F
ROUNDUP          N/A     37  29  73 SW12      29.92F WCI  29
$$

REGIONAL REPORTS...DAKOTAS

CITY           SKY/WX    TMP DP  RH WIND       PRES   REMARKS
WILLISTON      LGT SNOW  12   6  77 SE10G20   30.31F WCI  -1
MINOT          CLOUDY     5  -4  66 SE8       30.46F WCI  -8
DICKINSON      CLOUDY    10   4  76 SE22      30.27F WCI -10
BEACH          FLURRIES  16  14  93 SE20G29   30.24F WCI  -1
CROSBY           N/A     10   1  67 SE16      30.36F WCI  -7
TIOGA            N/A      9   3  78 SE20      30.38F WCI -11
WATFORD CITY   LGT SNOW  10   7  85 SE13      30.32F WCI  -5
BISMARCK       CLOUDY     5  -5  63 SE9       30.51F WCI  -9
GRAND FORKS    CLOUDY    -7 -14  71 W3        30.67S
FARGO          CLOUDY    -7 -14  71 CALM      30.67F
BUFFALO SD       N/A     18  15  88 SE18      30.15F WCI   2
RAPID CITY     CLOUDY    25  22  88 SE16      30.22F WCI  12
$$

REGIONAL REPORTS...WYOMING/IDAHO/WASHINGTON

CITY           SKY/WX    TMP DP  RH WIND       PRES   REMARKS
GILLETTE       CLOUDY    30  28  92 S20       30.11F WCI  17
SHERIDAN       CLOUDY    29  26  89 SW6       30.07F WCI  23
BUFFALO WY     CLEAR     37  29  72 SW5       30.08F
CODY           CLEAR     52  23  32 SW6       30.07F
YELLOWSTONE LA   N/A     27  19  72 CALM      30.24F
IDAHO FALLS    CLOUDY    21  18  88 N3        30.23F FOG
SALMON         CLOUDY    28  25  86 CALM      30.16F
BOISE          CLOUDY    39  32  76 S6        30.18F
SPOKANE        CLOUDY    42  39  89 S15       30.08S
$$

REGIONAL REPORTS...ALBERTA

CITY           SKY/WX    TMP DP  RH WIND       PRES   REMARKS
EDMONTON       CLOUDY    18  14  86 SE7       29.87F WCI   8
CALGARY        FOG       27  27 100 SW8       29.78F VSB 1/4 WCI  18
LETHBRIDGE     MOCLDY    37  32  81 SW13G21   29.84F WCI  29
MEDICINE HAT   CLEAR     32  30  93 S7        29.85F WCI  26
WATERTON GATE    N/A     45  32  61 SW26G41     N/A
CARDSTON         N/A     43  30  61 S9          N/A
MILK RIVER       N/A     30  28  93 S14         N/A  WCI  20
ONEFOUR          N/A     25  23  93 E10         N/A  WCI  15
$$

REGIONAL REPORTS...SASKATCHEWAN

CITY           SKY/WX    TMP DP  RH WIND       PRES   REMARKS
SWIFT CURRENT  FLURRIES  16  14  93 SE24G32   30.00F WCI  -3
REGINA         CLOUDY     9   0  66 SE23      30.27F WCI -12
SASKATOON      MOCLDY     9   0  66 SE15G25   30.18F WCI  -8
CYPRESS HILLS    N/A     16  14  93 S3          N/A
VAL MARIE        N/A     18  16  93 SE10        N/A  WCI   6
ROCKGLEN         N/A     10   9  92 SE17        N/A  WCI  -7
ASSINIBOIA       N/A     14  10  85 SE8         N/A  WCI   3
$$



USA.gov is the U.S. government's official web portal to all federal, state and local government web resources and services.